Regional Weather Roundup
Issued by NWS

Home | Current Version | Previous Version | Text Only | Print | Product List | Glossary Off
Versions: 1 2 3 4 5 6 7 8 9 10 11 12 13 14 15 16 17 18 19 20 21 22 23 24 25 26 27

000
ASUS45 KBOU 240307
RWRCO

WEATHER ROUNDUP FOR COLORADO
NATIONAL WEATHER SERVICE DENVER/BOULDER CO
900 PM MDT THU MAR 23 2017

NOTE: "FAIR" INDICATES FEW OR NO CLOUDS BELOW 12000 FEET WITH NO
SIGNIFICANT WEATHER AND/OR OBSTRUCTIONS TO VISIBILITY.

COZ001>005-013-030-031-240400-
...NORTHWEST COLORADO...

CITY           SKY/WX    TMP DP  RH WIND       PRES   REMARKS
CRAIG          RAIN      42  36  79 N22G29    29.82R
HAYDEN         CLOUDY    41  30  65 NW14G21   29.81R
MEEKER         CLOUDY    44  35  70 N9        29.82R
MOUNT WERNER   NOT AVBL
STEAMBOAT SPGS CLOUDY    43  31  63 W8        29.78R
WALDEN         NOT AVBL
$$

COZ006>008-011-240400-
...WEST CENTRAL VALLEYS...

CITY           SKY/WX    TMP DP  RH WIND       PRES   REMARKS
GRAND JUNCTION CLOUDY    45  38  76 N15       29.79R
MONTROSE       CLOUDY    42  37  82 NW7       29.81S
EAGLE          CLOUDY    43  30  61 CALM      29.82R
RIFLE          LGT RAIN  46  39  76 W13       29.78R
DELTA          MOCLDY    46  38  76 SW10      29.78S
NUCLA          LGT RAIN  41  36  81 NW3       29.86R
$$

COZ017>023-064>068-240400-
...SOUTHWEST COLORADO...

CITY           SKY/WX    TMP DP  RH WIND       PRES   REMARKS
DURANGO        CLOUDY    36  33  89 W20       29.77F
CORTEZ         LGT RAIN  38  36  92 CALM      29.83F
PAGOSA SPRINGS LGT SNOW  34  33  99 CALM      29.76F
TELLURIDE      NOT AVBL
WOLF CREEK PAS SNOW      18  18 100 W9        29.81F VSB 1/2 WCI   6
$$

COZ009-010-012-014-032>034-037-058>063-240400-
...CENTRAL COLORADO...

CITY           SKY/WX    TMP DP  RH WIND       PRES   REMARKS
ASPEN          FAIR      34  32  92 NW6       29.79F WCI  29
BUENA VISTA    CLOUDY    41  26  54 NW23G32   29.72S
COPPER MTN     CLOUDY    28  23  80 MISG      29.88S
BERTHOUD PASS  CLOUDY    21  10  63 N13G24    29.88F WCI   9
COTTONWOOD PAS LGT SNOW  34  30  86 W6        29.78S WCI  29
GUNNISON       MIX PCPN  33  32  96 S7        29.76F WCI  27
KREMMLING      MOCLDY    39  34  81 CALM      29.83R
LEADVILLE      CLOUDY    30  21  69 N9        29.80F WCI  22
MONARCH PASS   SNOW      27  25  93 NE14      29.89F VSB 1/4 WCI  15
SALIDA         MOCLDY    42  35  75 W6        29.78F
SUNLIGHT       LGT SNOW  27  25  93 NW3       29.90S
WILKERSON PASS FAIR      28  23  80 NE17      29.83F WCI  16
$$

COZ069>075-240400-
...SAN LUIS VALLEY/SANGRE DE CRISTO MOUNTAINS...

CITY           SKY/WX    TMP DP  RH WIND       PRES   REMARKS
ALAMOSA        LGT RAIN  35  34  96 NW7       29.64F WCI  29
LA VETA PASS   NOT AVBL
SAGUACHE       FAIR      36  32  87 NW20      29.68F
$$

COZ035-036-038>040-240400-
...NORTHERN COLORADO FRONT RANGE...

CITY           SKY/WX    TMP DP  RH WIND       PRES   REMARKS
DENVER INTL AP CLOUDY    51  39  63 N31G45    29.66R
DMNS CITY PARK   N/A     53  38  58 N25G36    29.72R
AURORA         NOT AVBL
FRONT RANGE AP CLOUDY    63  30  29 N39G52    29.65
ERIE MUNI ARPT FAIR      52  38  57 N32G43    29.68R HAZE
BOULDER MUN AP CLOUDY    52  37  58 N29G40    29.69R
CENTENNIAL     CLOUDY    59  21  23 N20G32    29.67R
BROOMFIELD     MOCLDY    57  36  44 N31G46    29.67R FOG
FORT COLLINS   LGT RAIN  50  38  63 N23G32    29.73R
LONGMONT       CLOUDY    54  39  55 N32G46    29.72R
$$

COZ041-046-047-076>085-087-088-240400-
...PIKES PEAK/PALMER DIVIDE AND SOUTHERN FOOTHILLS...

CITY           SKY/WX    TMP DP  RH WIND       PRES   REMARKS
COLO. SPRINGS  MOCLDY    58  20  22 N15       29.59F
A. F. ACADEMY  FAIR      55  20  25 N9        29.62S
SCHRIEVER AFB  NOT AVBL
ELLICOTT         N/A    N/A N/A N/A N6        29.58F
FALCON         FAIR      54  16  21 N15       29.65S
FORT CARSON    FAIR      58  21  24 N18       29.57R
LIMON          FAIR      44  19  36 N6        29.59R
MONUMENT HILL  CLOUDY    50  19  29 N16       29.69R
TRINIDAD       FAIR      52  23  32 SW9       29.51F
$$

COZ042>045-048>051-090-091-240400-
...NORTHEAST COLORADO...

CITY           SKY/WX    TMP DP  RH WIND       PRES   REMARKS
GREELEY ARPT     N/A     51  39  63 MISG        N/A
AKRON          FAIR      57  36  45 N36G53    29.62R
BURLINGTON     FAIR      68  25  19 SE23      29.57R
WRAY           NOT AVBL
STERLING       CLOUDY    57  41  54 N28G38    29.63R
HOLYOKE        FAIR      63  41  45 N28G38    29.57R
FORT MORGAN    CLOUDY    54  40  59 N37G51    29.64R
$$

COZ086-089-092>099-240400-
...SOUTHEAST COLORADO...

CITY           SKY/WX    TMP DP  RH WIND       PRES   REMARKS
PUEBLO         FAIR      58  21  24 NW13      29.49F
LA JUNTA       FAIR      63  25  23 W10       29.47R
LAMAR          FAIR      67  44  43 SE24G37   29.46R
SPRINGFIELD      N/A     61  48  62 S20       29.53R
$$




USA.gov is the U.S. government's official web portal to all federal, state and local government web resources and services.